Time,TemperatureF,DewpointF,PressureIn,WindDirection,WindDirectionDegrees,WindSpeedMPH,WindSpeedGustMPH,Humidity,HourlyPrecipIn,Conditions,Clouds,dailyrainin,SoftwareType,DateUTC
2013-06-06 00:03:00,54.9,40.8,30.00,South,191,1.0,2.0,59,0.00,CLR,CLR,0.00,WeatherDisplay:10.34,2013-06-06 06:03:00,
2013-06-06 00:08:00,54.6,40.6,30.00,South,191,1.0,1.0,59,0.00,CLR,CLR,0.00,WeatherDisplay:10.34,2013-06-06 06:08:00,
2013-06-06 00:13:00,54.4,40.8,30.00,South,191,1.0,2.0,60,0.00,CLR,CLR,0.00,WeatherDisplay:10.34,2013-06-06 06:13:00,
2013-06-06 00:18:00,54.1,40.5,30.00,South,191,0.0,0.0,60,0.00,CLR,CLR,0.00,WeatherDisplay:10.34,2013-06-06 06:18:00,
2013-06-06 00:23:00,53.9,39.9,30.00,South,191,2.0,2.0,59,0.00,CLR,CLR,0.00,WeatherDisplay:10.34,2013-06-06 06:23:00,
2013-06-06 00:28:00,53.7,39.7,30.00,South,191,0.0,0.0,59,0.00,CLR,CLR,0.00,WeatherDisplay:10.34,2013-06-06 06:28:00,
2013-06-06 00:33:00,53.5,39.9,30.00,South,191,0.0,0.0,60,0.00,CLR,CLR,0.00,WeatherDisplay:10.34,2013-06-06 06:33:00,
2013-06-06 00:38:00,53.4,39.9,30.00,South,191,0.0,0.0,60,0.00,CLR,CLR,0.00,WeatherDisplay:10.34,2013-06-06 06:38:00,
2013-06-06 00:43:00,53.1,40.0,30.00,South,191,0.0,0.0,61,0.00,CLR,CLR,0.00,WeatherDisplay:10.34,2013-06-06 06:43:00,
2013-06-06 00:48:00,52.8,39.7,30.00,South,191,1.0,1.0,61,0.00,CLR,CLR,0.00,WeatherDisplay:10.34,2013-06-06 06:48:00,
2013-06-06 00:53:00,52.4,40.2,30.00,South,191,2.0,2.0,63,0.00,CLR,CLR,0.00,WeatherDisplay:10.34,2013-06-06 06:53:00,
2013-06-06 00:58:00,52.2,40.4,30.00,South,191,2.0,2.0,64,0.00,CLR,CLR,0.00,WeatherDisplay:10.34,2013-06-06 06:58:00,
2013-06-06 01:03:00,51.9,39.7,30.00,South,191,0.0,1.0,63,0.00,CLR,CLR,0.00,WeatherDisplay:10.34,2013-06-06 07:03:00,
2013-06-06 01:08:00,51.7,39.5,30.00,SSW,193,2.0,3.0,63,0.00,CLR,CLR,0.00,WeatherDisplay:10.34,2013-06-06 07:08:00,
2013-06-06 01:13:00,51.4,39.2,30.00,SSW,193,3.0,3.0,63,0.00,CLR,CLR,0.00,WeatherDisplay:10.34,2013-06-06 07:13:00,
2013-06-06 01:18:00,50.8,39.1,30.00,SSW,193,0.0,1.0,64,0.00,CLR,CLR,0.00,WeatherDisplay:10.34,2013-06-06 07:18:00,
2013-06-06 01:23:00,50.4,39.5,30.00,WSW,248,3.0,3.0,66,0.00,CLR,CLR,0.00,WeatherDisplay:10.34,2013-06-06 07:23:00,
2013-06-06 01:28:00,50.3,39.0,30.00,WSW,242,8.0,8.0,65,0.00,CLR,CLR,0.00,WeatherDisplay:10.34,2013-06-06 07:28:00,
2013-06-06 01:33:00,50.5,38.0,30.00,SW,236,6.0,7.0,62,0.00,CLR,CLR,0.00,WeatherDisplay:10.34,2013-06-06 07:33:00,
2013-06-06 01:38:00,50.7,38.1,30.00,WSW,240,6.0,6.0,62,0.00,CLR,CLR,0.00,WeatherDisplay:10.34,2013-06-06 07:38:00,
2013-06-06 01:43:00,50.8,38.2,30.00,WSW,238,5.0,5.0,62,0.00,CLR,CLR,0.00,WeatherDisplay:10.34,2013-06-06 07:43:00,
2013-06-06 01:48:00,51.0,38.0,30.00,WSW,237,5.0,5.0,61,0.00,CLR,CLR,0.00,WeatherDisplay:10.34,2013-06-06 07:48:00,
2013-06-06 01:53:00,51.2,37.8,30.00,WSW,251,6.0,6.0,60,0.00,CLR,CLR,0.00,WeatherDisplay:10.34,2013-06-06 07:53:00,
2013-06-06 01:58:00,51.3,37.9,30.00,WSW,240,5.0,5.0,60,0.00,CLR,CLR,0.00,WeatherDisplay:10.34,2013-06-06 07:58:00,
2013-06-06 02:03:00,51.3,37.9,30.00,WSW,244,6.0,6.0,60,0.00,CLR,CLR,0.00,WeatherDisplay:10.34,2013-06-06 08:03:00,
2013-06-06 02:08:00,51.3,37.9,30.00,WSW,256,6.0,7.0,60,0.00,CLR,CLR,0.00,WeatherDisplay:10.34,2013-06-06 08:08:00,
2013-06-06 02:13:00,51.3,37.9,30.00,WSW,249,7.0,7.0,60,0.00,CLR,CLR,0.00,WeatherDisplay:10.34,2013-06-06 08:13:00,
2013-06-06 02:18:00,51.4,38.0,30.00,South,180,5.0,5.0,60,0.00,CLR,CLR,0.00,WeatherDisplay:10.34,2013-06-06 08:18:00,
2013-06-06 02:23:00,50.7,37.7,30.00,WSW,242,9.0,9.0,61,0.00,CLR,CLR,0.00,WeatherDisplay:10.34,2013-06-06 08:23:00,
2013-06-06 02:28:00,50.8,37.8,30.00,WSW,246,5.0,7.0,61,0.00,CLR,CLR,0.00,WeatherDisplay:10.34,2013-06-06 08:28:00,
2013-06-06 02:33:00,50.9,37.9,30.00,WSW,242,6.0,7.0,61,0.00,CLR,CLR,0.00,WeatherDisplay:10.34,2013-06-06 08:33:00,
2013-06-06 02:38:00,51.0,38.0,30.00,SW,232,5.0,5.0,61,0.00,CLR,CLR,0.00,WeatherDisplay:10.34,2013-06-06 08:38:00,
2013-06-06 02:43:00,51.0,38.0,30.00,SW,234,5.0,5.0,61,0.00,CLR,CLR,0.00,WeatherDisplay:10.34,2013-06-06 08:43:00,
2013-06-06 02:48:00,50.8,37.8,30.00,West,264,3.0,3.0,61,0.00,CLR,CLR,0.00,WeatherDisplay:10.34,2013-06-06 08:48:00,
2013-06-06 02:53:00,50.7,37.3,30.00,WSW,240,4.0,4.0,60,0.00,CLR,CLR,0.00,WeatherDisplay:10.34,2013-06-06 08:53:00,
2013-06-06 02:58:00,50.6,37.2,30.00,WSW,239,6.0,6.0,60,0.00,CLR,CLR,0.00,WeatherDisplay:10.34,2013-06-06 08:58:00,
2013-06-06 03:03:00,50.7,37.3,30.00,WSW,253,4.0,5.0,60,0.00,CLR,CLR,0.00,WeatherDisplay:10.34,2013-06-06 09:03:00,
2013-06-06 03:08:00,50.7,37.3,30.00,WSW,245,0.0,0.0,60,0.00,CLR,CLR,0.00,WeatherDisplay:10.34,2013-06-06 09:08:00,
2013-06-06 03:13:00,50.7,37.7,30.00,SW,230,4.0,4.0,61,0.00,CLR,CLR,0.00,WeatherDisplay:10.34,2013-06-06 09:13:00,
2013-06-06 03:18:00,50.6,37.6,30.00,SW,230,6.0,7.0,61,0.00,CLR,CLR,0.00,WeatherDisplay:10.34,2013-06-06 09:18:00,
2013-06-06 03:23:00,50.4,37.9,30.00,WSW,237,5.0,5.0,62,0.00,CLR,CLR,0.00,WeatherDisplay:10.34,2013-06-06 09:23:00,
2013-06-06 03:28:00,50.3,37.8,30.00,WSW,250,4.0,8.0,62,0.00,CLR,CLR,0.00,WeatherDisplay:10.34,2013-06-06 09:28:00,
2013-06-06 03:33:00,50.2,37.7,30.00,WSW,252,3.0,3.0,62,0.00,CLR,CLR,0.00,WeatherDisplay:10.34,2013-06-06 09:33:00,
2013-06-06 03:38:00,50.1,37.6,30.00,WSW,238,4.0,4.0,62,0.00,CLR,CLR,0.00,WeatherDisplay:10.34,2013-06-06 09:38:00,
2013-06-06 03:43:00,50.2,37.7,30.00,WSW,254,6.0,7.0,62,0.00,CLR,CLR,0.00,WeatherDisplay:10.34,2013-06-06 09:43:00,
2013-06-06 03:48:00,50.2,37.7,30.00,WSW,248,2.0,2.0,62,0.00,CLR,CLR,0.00,WeatherDisplay:10.34,2013-06-06 09:48:00,
2013-06-06 03:53:00,50.2,38.1,30.00,WSW,252,5.0,5.0,63,0.00,CLR,CLR,0.00,WeatherDisplay:10.34,2013-06-06 09:53:00,
2013-06-06 03:58:00,50.1,37.6,30.00,WSW,252,2.0,2.0,62,0.00,CLR,CLR,0.00,WeatherDisplay:10.34,2013-06-06 09:58:00,
2013-06-06 04:03:00,50.1,38.0,30.00,WSW,246,4.0,4.0,63,0.00,CLR,CLR,0.00,WeatherDisplay:10.34,2013-06-06 10:03:00,
2013-06-06 04:08:00,50.1,38.0,30.00,WSW,238,2.0,3.0,63,0.00,CLR,CLR,0.00,WeatherDisplay:10.34,2013-06-06 10:08:00,
2013-06-06 04:13:00,50.0,37.9,30.00,West,263,0.0,1.0,63,0.00,CLR,CLR,0.00,WeatherDisplay:10.34,2013-06-06 10:13:00,
2013-06-06 04:18:00,50.0,38.3,30.00,West,263,2.0,2.0,64,0.00,CLR,CLR,0.00,WeatherDisplay:10.34,2013-06-06 10:18:00,
2013-06-06 04:23:00,49.8,38.1,30.00,WSW,250,4.0,4.0,64,0.00,CLR,CLR,0.00,WeatherDisplay:10.34,2013-06-06 10:23:00,
2013-06-06 04:28:00,49.7,38.0,30.00,WSW,250,1.0,2.0,64,0.00,CLR,CLR,0.00,WeatherDisplay:10.34,2013-06-06 10:28:00,
2013-06-06 04:33:00,49.6,37.9,30.00,WSW,250,1.0,1.0,64,0.00,CLR,CLR,0.00,WeatherDisplay:10.34,2013-06-06 10:33:00,
2013-06-06 04:38:00,49.6,37.9,30.00,WSW,250,1.0,2.0,64,0.00,CLR,CLR,0.00,WeatherDisplay:10.34,2013-06-06 10:38:00,
2013-06-06 04:44:00,49.4,37.7,30.00,WSW,257,4.0,5.0,64,0.00,CLR,CLR,0.00,WeatherDisplay:10.34,2013-06-06 10:44:00,
2013-06-06 04:49:00,49.4,38.1,30.00,WSW,255,3.0,5.0,65,0.00,CLR,CLR,0.00,WeatherDisplay:10.34,2013-06-06 10:49:00,
2013-06-06 04:54:00,49.4,38.1,30.00,WSW,240,3.0,3.0,65,0.00,CLR,CLR,0.00,WeatherDisplay:10.34,2013-06-06 10:54:00,
2013-06-06 04:59:00,49.3,38.0,30.00,WSW,240,3.0,3.0,65,0.00,CLR,CLR,0.00,WeatherDisplay:10.34,2013-06-06 10:59:00,
2013-06-06 05:04:00,49.2,37.9,30.00,WSW,240,3.0,3.0,65,0.00,OVC,OVC,0.00,WeatherDisplay:10.34,2013-06-06 11:04:00,
2013-06-06 05:09:00,49.2,37.9,30.00,WSW,240,3.0,3.0,65,0.00,OVC,OVC,0.00,WeatherDisplay:10.34,2013-06-06 11:09:00,
2013-06-06 05:14:00,49.2,37.9,30.00,WSW,240,2.0,3.0,65,0.00,OVC,OVC,0.00,WeatherDisplay:10.34,2013-06-06 11:14:00,
2013-06-06 05:19:00,49.2,37.9,30.00,SW,234,5.0,5.0,65,0.00,OVC,OVC,0.00,WeatherDisplay:10.34,2013-06-06 11:19:00,
2013-06-06 05:24:00,49.2,37.9,30.00,WSW,237,3.0,3.0,65,0.00,OVC,OVC,0.00,WeatherDisplay:10.34,2013-06-06 11:24:00,
2013-06-06 05:29:00,49.1,38.2,30.00,SW,231,4.0,4.0,66,0.00,OVC,OVC,0.00,WeatherDisplay:10.34,2013-06-06 11:29:00,
2013-06-06 05:34:00,49.0,38.1,30.01,SW,223,4.0,4.0,66,0.00,OVC,OVC,0.00,WeatherDisplay:10.34,2013-06-06 11:34:00,
2013-06-06 05:39:00,49.0,38.1,30.01,SW,225,1.0,2.0,66,0.00,OVC,OVC,0.00,WeatherDisplay:10.34,2013-06-06 11:39:00,
2013-06-06 05:44:00,48.8,37.9,30.01,SW,232,4.0,4.0,66,0.00,OVC,OVC,0.00,WeatherDisplay:10.34,2013-06-06 11:44:00,
2013-06-06 05:49:00,48.7,37.8,30.01,SW,227,3.0,3.0,66,0.00,OVC,OVC,0.00,WeatherDisplay:10.34,2013-06-06 11:49:00,
2013-06-06 05:54:00,48.7,38.2,30.01,SW,228,1.0,1.0,67,0.00,OVC,OVC,0.00,WeatherDisplay:10.34,2013-06-06 11:54:00,
2013-06-06 05:59:00,48.6,38.1,30.01,SW,232,3.0,5.0,67,0.00,OVC,OVC,0.00,WeatherDisplay:10.34,2013-06-06 11:59:00,
2013-06-06 06:04:00,48.6,38.1,30.01,SW,229,6.0,8.0,67,0.00,OVC,OVC,0.00,WeatherDisplay:10.34,2013-06-06 12:04:00,
2013-06-06 06:09:00,48.8,38.3,30.01,SW,234,3.0,7.0,67,0.00,CLR,CLR,0.00,WeatherDisplay:10.34,2013-06-06 12:09:00,
2013-06-06 06:14:00,49.0,38.5,30.02,SW,231,6.0,7.0,67,0.00,CLR,CLR,0.00,WeatherDisplay:10.34,2013-06-06 12:14:00,
2013-06-06 06:19:00,49.2,38.7,30.02,SW,233,5.0,5.0,67,0.00,FEW,FEW,0.00,WeatherDisplay:10.34,2013-06-06 12:19:00,
2013-06-06 06:24:00,49.5,39.0,30.02,SW,233,3.0,3.0,67,0.00,CLR,CLR,0.00,WeatherDisplay:10.34,2013-06-06 12:24:00,
2013-06-06 06:29:00,49.7,38.8,30.02,SW,233,1.0,3.0,66,0.00,CLR,CLR,0.00,WeatherDisplay:10.34,2013-06-06 12:29:00,
2013-06-06 06:34:00,50.0,39.1,30.02,SW,217,4.0,7.0,66,0.00,CLR,CLR,0.00,WeatherDisplay:10.34,2013-06-06 12:34:00,
2013-06-06 06:39:00,50.3,39.4,30.02,SW,217,2.0,2.0,66,0.00,CLR,CLR,0.00,WeatherDisplay:10.34,2013-06-06 12:39:00,
2013-06-06 06:44:00,50.6,40.0,30.02,SW,217,2.0,2.0,67,0.00,CLR,CLR,0.00,WeatherDisplay:10.34,2013-06-06 12:44:00,
2013-06-06 06:49:00,51.2,40.2,30.02,SSW,206,5.0,5.0,66,0.00,CLR,CLR,0.00,WeatherDisplay:10.34,2013-06-06 12:49:00,
2013-06-06 06:54:00,51.7,40.3,30.02,SSW,209,6.0,6.0,65,0.00,CLR,CLR,0.00,WeatherDisplay:10.34,2013-06-06 12:54:00,
2013-06-06 06:59:00,52.3,40.9,30.02,SSW,213,3.0,3.0,65,0.00,CLR,CLR,0.00,WeatherDisplay:10.34,2013-06-06 12:59:00,
2013-06-06 07:04:00,52.9,41.4,30.02,SSW,210,4.0,5.0,65,0.00,CLR,CLR,0.00,WeatherDisplay:10.34,2013-06-06 13:04:00,
2013-06-06 07:09:00,53.3,41.0,30.02,SSW,202,7.0,8.0,63,0.00,CLR,CLR,0.00,WeatherDisplay:10.34,2013-06-06 13:09:00,
2013-06-06 07:15:00,53.7,41.4,30.03,SW,218,6.0,7.0,63,0.00,CLR,CLR,0.00,WeatherDisplay:10.34,2013-06-06 13:15:00,
2013-06-06 07:20:00,54.0,42.1,30.03,SW,232,5.0,5.0,64,0.00,CLR,CLR,0.00,WeatherDisplay:10.34,2013-06-06 13:20:00,
2013-06-06 07:25:00,54.3,42.0,30.03,SW,232,6.0,7.0,63,0.00,CLR,CLR,0.00,WeatherDisplay:10.34,2013-06-06 13:25:00,
2013-06-06 07:30:00,54.8,42.0,30.03,SW,228,4.0,0.0,62,0.00,CLR,CLR,0.00,WeatherDisplay:10.34,2013-06-06 13:30:00,
2013-06-06 07:35:00,55.3,42.5,30.03,SW,221,4.0,4.0,62,0.00,CLR,CLR,0.00,WeatherDisplay:10.34,2013-06-06 13:35:00,
2013-06-06 07:40:00,55.9,42.6,30.03,SSW,213,2.0,2.0,61,0.00,CLR,CLR,0.00,WeatherDisplay:10.34,2013-06-06 13:40:00,
2013-06-06 07:45:00,56.6,43.7,30.03,SW,223,6.0,7.0,62,0.00,CLR,CLR,0.00,WeatherDisplay:10.34,2013-06-06 13:45:00,
2013-06-06 07:50:00,57.3,43.1,30.03,SW,214,3.0,5.0,59,0.00,CLR,CLR,0.00,WeatherDisplay:10.34,2013-06-06 13:50:00,
2013-06-06 07:55:00,58.0,43.3,30.03,SSW,207,5.0,5.0,58,0.00,CLR,CLR,0.00,WeatherDisplay:10.34,2013-06-06 13:55:00,
2013-06-06 08:00:00,58.6,42.9,30.03,SW,236,4.0,4.0,56,0.00,CLR,CLR,0.00,WeatherDisplay:10.34,2013-06-06 14:00:00,
2013-06-06 08:05:00,59.0,42.8,30.03,SW,236,3.0,3.0,55,0.00,CLR,CLR,0.00,WeatherDisplay:10.34,2013-06-06 14:05:00,
2013-06-06 08:10:00,59.4,42.7,30.03,SW,214,4.0,4.0,54,0.00,CLR,CLR,0.00,WeatherDisplay:10.34,2013-06-06 14:10:00,
2013-06-06 08:15:00,60.1,42.4,30.03,SW,214,2.0,2.0,52,0.00,CLR,CLR,0.00,WeatherDisplay:10.34,2013-06-06 14:15:00,
2013-06-06 08:20:00,60.6,42.4,30.03,SW,215,2.0,2.0,51,0.00,CLR,CLR,0.00,WeatherDisplay:10.34,2013-06-06 14:20:00,
2013-06-06 08:25:00,61.2,42.9,30.03,SW,215,3.0,3.0,51,0.00,CLR,CLR,0.00,WeatherDisplay:10.34,2013-06-06 14:25:00,
2013-06-06 08:30:00,61.7,42.3,30.04,SW,215,3.0,3.0,49,0.00,CLR,CLR,0.00,WeatherDisplay:10.34,2013-06-06 14:30:00,
2013-06-06 08:35:00,62.0,41.5,30.04,SW,215,1.0,0.0,47,0.00,CLR,CLR,0.00,WeatherDisplay:10.34,2013-06-06 14:35:00,
2013-06-06 08:40:00,62.5,42.0,30.04,SW,215,0.0,1.0,47,0.00,CLR,CLR,0.00,WeatherDisplay:10.34,2013-06-06 14:40:00,
2013-06-06 08:45:00,63.1,44.2,30.04,SW,215,2.0,3.0,50,0.00,CLR,CLR,0.00,WeatherDisplay:10.34,2013-06-06 14:45:00,
2013-06-06 08:50:00,63.6,44.1,30.04,SW,215,0.0,0.0,49,0.00,CLR,CLR,0.00,WeatherDisplay:10.34,2013-06-06 14:50:00,
2013-06-06 08:55:00,64.1,42.9,30.04,SW,218,2.0,2.0,46,0.00,CLR,CLR,0.00,WeatherDisplay:10.34,2013-06-06 14:55:00,
2013-06-06 09:00:00,64.4,42.6,30.04,SSW,194,1.0,1.0,45,0.00,CLR,CLR,0.00,WeatherDisplay:10.34,2013-06-06 15:00:00,
2013-06-06 09:05:00,64.7,42.3,30.04,South,182,3.0,5.0,44,0.00,CLR,CLR,0.00,WeatherDisplay:10.34,2013-06-06 15:05:00,
2013-06-06 09:10:00,64.8,41.2,30.04,South,170,3.0,3.0,42,0.00,CLR,CLR,0.00,WeatherDisplay:10.34,2013-06-06 15:10:00,
2013-06-06 09:15:00,64.9,40.6,30.04,ESE,122,3.0,3.0,41,0.00,CLR,CLR,0.00,WeatherDisplay:10.34,2013-06-06 15:15:00,
2013-06-06 09:20:00,65.3,41.6,30.04,SSW,192,6.0,7.0,42,0.00,CLR,CLR,0.00,WeatherDisplay:10.34,2013-06-06 15:20:00,
2013-06-06 09:25:00,65.6,41.9,30.04,SSW,206,5.0,5.0,42,0.00,CLR,CLR,0.00,WeatherDisplay:10.34,2013-06-06 15:25:00,
2013-06-06 09:30:00,65.9,42.8,30.03,SSW,207,0.0,1.0,43,0.00,CLR,CLR,0.00,WeatherDisplay:10.34,2013-06-06 15:30:00,
2013-06-06 09:35:00,66.4,41.3,30.04,SSW,206,0.0,0.0,40,0.00,CLR,CLR,0.00,WeatherDisplay:10.34,2013-06-06 15:35:00,
2013-06-06 09:40:00,67.1,42.6,30.04,ESE,121,2.0,2.0,41,0.00,CLR,CLR,0.00,WeatherDisplay:10.34,2013-06-06 15:40:00,
2013-06-06 09:45:00,67.8,42.6,30.04,SSE,163,3.0,3.0,40,0.00,CLR,CLR,0.00,WeatherDisplay:10.34,2013-06-06 15:45:00,
2013-06-06 09:50:00,68.2,42.9,30.03,SW,228,4.0,4.0,40,0.00,CLR,CLR,0.00,WeatherDisplay:10.34,2013-06-06 15:50:00,
2013-06-06 09:55:00,68.5,43.2,30.03,SW,228,0.0,0.0,40,0.00,CLR,CLR,0.00,WeatherDisplay:10.34,2013-06-06 15:55:00,
2013-06-06 10:00:00,68.8,42.1,30.03,SSW,201,1.0,0.0,38,0.00,CLR,CLR,0.00,WeatherDisplay:10.34,2013-06-06 16:00:00,
2013-06-06 10:05:00,68.9,43.6,30.03,SSE,163,0.0,0.0,40,0.00,CLR,CLR,0.00,WeatherDisplay:10.34,2013-06-06 16:05:00,
2013-06-06 10:10:00,69.4,44.7,30.04,NW,326,4.0,5.0,41,0.00,FEW,FEW,0.00,WeatherDisplay:10.34,2013-06-06 16:10:00,
2013-06-06 10:15:00,70.0,43.9,30.04,NNW,329,0.0,0.0,39,0.00,CLR,CLR,0.00,WeatherDisplay:10.34,2013-06-06 16:15:00,
2013-06-06 10:20:00,70.6,43.7,30.04,NNW,329,1.0,1.0,38,0.00,CLR,CLR,0.00,WeatherDisplay:10.34,2013-06-06 16:20:00,
2013-06-06 10:25:00,71.1,42.0,30.04,WNW,287,2.0,3.0,35,0.00,CLR,CLR,0.00,WeatherDisplay:10.34,2013-06-06 16:25:00,
2013-06-06 10:31:00,71.3,45.1,30.03,North,5,6.0,8.0,39,0.00,CLR,CLR,0.00,WeatherDisplay:10.34,2013-06-06 16:31:00,
2013-06-06 10:36:00,71.6,44.6,30.04,NW,315,3.0,5.0,38,0.00,CLR,CLR,0.00,WeatherDisplay:10.34,2013-06-06 16:36:00,
2013-06-06 10:42:00,72.2,43.0,30.03,North,360,5.0,5.0,35,0.00,CLR,CLR,0.00,WeatherDisplay:10.34,2013-06-06 16:42:00,
2013-06-06 10:47:00,73.1,43.8,30.03,NW,321,1.0,3.0,35,0.00,FEW,FEW,0.00,WeatherDisplay:10.34,2013-06-06 16:47:00,
2013-06-06 10:52:00,73.4,43.3,30.04,North,349,3.0,3.0,34,0.00,CLR,CLR,0.00,WeatherDisplay:10.34,2013-06-06 16:52:00,
2013-06-06 10:57:00,73.8,43.7,30.04,WNW,290,0.0,2.0,34,0.00,CLR,CLR,0.00,WeatherDisplay:10.34,2013-06-06 16:57:00,
2013-06-06 11:02:00,74.2,43.2,30.04,NE,44,2.0,7.0,33,0.00,FEW,FEW,0.00,WeatherDisplay:10.34,2013-06-06 17:02:00,
2013-06-06 11:07:00,74.3,44.1,30.04,NNW,343,2.0,3.0,34,0.00,CLR,CLR,0.00,WeatherDisplay:10.34,2013-06-06 17:07:00,
2013-06-06 11:12:00,74.6,43.6,30.04,NE,34,3.0,5.0,33,0.00,CLR,CLR,0.00,WeatherDisplay:10.34,2013-06-06 17:12:00,
2013-06-06 11:17:00,74.9,43.8,30.04,NE,36,9.0,10.0,33,0.00,CLR,CLR,0.00,WeatherDisplay:10.34,2013-06-06 17:17:00,
2013-06-06 11:22:00,74.4,43.4,30.04,NE,38,10.0,12.0,33,0.00,CLR,CLR,0.00,WeatherDisplay:10.34,2013-06-06 17:22:00,
2013-06-06 11:27:00,74.6,44.4,30.04,NW,325,2.0,5.0,34,0.00,CLR,CLR,0.00,WeatherDisplay:10.34,2013-06-06 17:27:00,
2013-06-06 11:32:00,74.7,44.5,30.03,NNW,330,6.0,7.0,34,0.00,CLR,CLR,0.00,WeatherDisplay:10.34,2013-06-06 17:32:00,
2013-06-06 11:37:00,74.9,43.8,30.03,NNW,329,5.0,5.0,33,0.00,FEW,FEW,0.00,WeatherDisplay:10.34,2013-06-06 17:37:00,
2013-06-06 11:42:00,75.1,43.2,30.03,West,259,1.0,2.0,32,0.00,CLR,CLR,0.00,WeatherDisplay:10.34,2013-06-06 17:42:00,
2013-06-06 11:47:00,75.7,44.5,30.03,NNE,24,5.0,7.0,33,0.00,CLR,CLR,0.00,WeatherDisplay:10.34,2013-06-06 17:47:00,
2013-06-06 11:52:00,75.5,42.7,30.03,North,355,0.0,1.0,31,0.00,CLR,CLR,0.00,WeatherDisplay:10.34,2013-06-06 17:52:00,
2013-06-06 11:57:00,75.5,42.7,30.03,NNW,341,7.0,7.0,31,0.00,FEW,FEW,0.00,WeatherDisplay:10.34,2013-06-06 17:57:00,
2013-06-06 12:02:00,75.8,41.3,30.03,North,10,0.0,2.0,29,0.00,CLR,CLR,0.00,WeatherDisplay:10.34,2013-06-06 18:02:00,
2013-06-06 12:07:00,75.9,41.3,30.03,SE,138,5.0,7.0,29,0.00,CLR,CLR,0.00,WeatherDisplay:10.34,2013-06-06 18:07:00,
2013-06-06 12:12:00,75.6,43.7,30.03,SSW,202,2.0,2.0,32,0.00,CLR,CLR,0.00,WeatherDisplay:10.34,2013-06-06 18:12:00,
2013-06-06 12:17:00,75.9,43.1,30.03,SE,124,1.0,2.0,31,0.00,CLR,CLR,0.00,WeatherDisplay:10.34,2013-06-06 18:17:00,
2013-06-06 12:23:00,76.4,42.7,30.03,NNE,28,5.0,9.0,30,0.00,FEW,FEW,0.00,WeatherDisplay:10.34,2013-06-06 18:23:00,
2013-06-06 12:28:00,77.3,42.6,30.03,ESE,105,8.0,10.0,29,0.00,CLR,CLR,0.00,WeatherDisplay:10.34,2013-06-06 18:28:00,
2013-06-06 12:33:00,77.5,42.7,30.03,NNW,341,3.0,8.0,29,0.00,FEW,FEW,0.00,WeatherDisplay:10.34,2013-06-06 18:33:00,
2013-06-06 12:38:00,77.0,42.3,30.03,SW,214,8.0,8.0,29,0.00,FEW,FEW,0.00,WeatherDisplay:10.34,2013-06-06 18:38:00,
2013-06-06 12:43:00,76.1,40.6,30.02,SSW,192,5.0,7.0,28,0.00,SCT,SCT,0.00,WeatherDisplay:10.34,2013-06-06 18:43:00,
2013-06-06 12:48:00,75.5,41.9,30.02,South,171,3.0,3.0,30,0.00,SCT,SCT,0.00,WeatherDisplay:10.34,2013-06-06 18:48:00,
2013-06-06 12:53:00,76.2,43.3,30.02,NNW,340,0.0,1.0,31,0.00,FEW,FEW,0.00,WeatherDisplay:10.34,2013-06-06 18:53:00,
2013-06-06 12:58:00,77.3,45.1,30.02,SW,228,3.0,5.0,32,0.00,CLR,CLR,0.00,WeatherDisplay:10.34,2013-06-06 18:58:00,
2013-06-06 13:03:00,77.8,43.9,30.02,West,265,8.0,10.0,30,0.00,FEW,FEW,0.00,WeatherDisplay:10.34,2013-06-06 19:03:00,
2013-06-06 13:08:00,78.0,42.2,30.02,West,263,4.0,12.0,28,0.00,FEW,FEW,0.00,WeatherDisplay:10.34,2013-06-06 19:08:00,
2013-06-06 13:13:00,78.0,44.0,30.02,SW,232,7.0,8.0,30,0.00,FEW,FEW,0.00,WeatherDisplay:10.34,2013-06-06 19:13:00,
2013-06-06 13:18:00,78.0,42.2,30.02,SW,228,6.0,7.0,28,0.00,FEW,FEW,0.00,WeatherDisplay:10.34,2013-06-06 19:18:00,
2013-06-06 13:23:00,77.9,44.8,30.02,NW,322,5.0,9.0,31,0.00,CLR,CLR,0.00,WeatherDisplay:10.34,2013-06-06 19:23:00,
2013-06-06 13:28:00,78.8,44.7,30.02,NNW,344,2.0,2.0,30,0.00,FEW,FEW,0.00,WeatherDisplay:10.34,2013-06-06 19:28:00,
2013-06-06 13:33:00,78.9,45.7,30.02,NNW,335,9.0,9.0,31,0.00,BKN,BKN,0.00,WeatherDisplay:10.34,2013-06-06 19:33:00,
2013-06-06 13:36:00,78.7,42.8,30.02,NW,309,1.0,3.0,28,0.00,SCT,SCT,0.00,WeatherDisplay:10.34,2013-06-06 19:36:00,
2013-06-06 13:41:00,78.6,44.6,30.02,North,349,9.0,9.0,30,0.00,SCT,SCT,0.00,WeatherDisplay:10.34,2013-06-06 19:41:00,
2013-06-06 13:47:00,78.3,45.2,30.02,NNW,337,9.0,10.0,31,0.00,SCT,SCT,0.00,WeatherDisplay:10.34,2013-06-06 19:47:00,
2013-06-06 13:52:00,78.2,45.1,30.02,NW,313,4.0,5.0,31,0.00,FEW,FEW,0.00,WeatherDisplay:10.34,2013-06-06 19:52:00,
2013-06-06 13:57:00,78.7,47.2,30.02,NW,322,10.0,10.0,33,0.00,FEW,FEW,0.00,WeatherDisplay:10.34,2013-06-06 19:57:00,
2013-06-06 14:02:00,78.9,44.8,30.02,WNW,294,6.0,10.0,30,0.00,SCT,SCT,0.00,WeatherDisplay:10.34,2013-06-06 20:02:00,
2013-06-06 14:07:00,78.6,43.7,30.02,North,5,0.0,2.0,29,0.00,SCT,SCT,0.00,WeatherDisplay:10.34,2013-06-06 20:07:00,
2013-06-06 14:12:00,78.6,43.7,30.02,North,355,1.0,1.0,29,0.00,SCT,SCT,0.00,WeatherDisplay:10.34,2013-06-06 20:12:00,
2013-06-06 14:17:00,78.7,44.7,30.02,NNW,345,3.0,5.0,30,0.00,FEW,FEW,0.00,WeatherDisplay:10.34,2013-06-06 20:17:00,
2013-06-06 14:22:00,79.6,45.4,30.01,NNW,336,2.0,3.0,30,0.00,FEW,FEW,0.00,WeatherDisplay:10.34,2013-06-06 20:22:00,
2013-06-06 14:28:00,80.7,45.5,30.01,NE,42,3.0,5.0,29,0.00,FEW,FEW,0.00,WeatherDisplay:10.34,2013-06-06 20:28:00,
2013-06-06 14:33:00,81.1,47.6,30.01,NNW,341,3.0,5.0,31,0.00,CLR,CLR,0.00,WeatherDisplay:10.34,2013-06-06 20:33:00,
2013-06-06 14:38:00,80.9,43.8,30.01,WNW,302,8.0,12.0,27,0.00,SCT,SCT,0.00,WeatherDisplay:10.34,2013-06-06 20:38:00,
2013-06-06 14:43:00,80.3,45.1,30.00,WSW,238,11.0,13.0,29,0.00,BKN,BKN,0.00,WeatherDisplay:10.34,2013-06-06 20:43:00,
2013-06-06 14:48:00,80.0,44.9,30.00,WSW,258,6.0,7.0,29,0.00,SCT,SCT,0.00,WeatherDisplay:10.34,2013-06-06 20:48:00,
2013-06-06 14:53:00,79.6,43.6,30.00,WSW,244,3.0,5.0,28,0.00,SCT,SCT,0.00,WeatherDisplay:10.34,2013-06-06 20:53:00,
2013-06-06 14:58:00,79.3,44.3,30.00,North,360,7.0,8.0,29,0.00,SCT,SCT,0.00,WeatherDisplay:10.34,2013-06-06 20:58:00,
2013-06-06 15:03:00,79.2,45.9,30.00,NW,324,4.0,7.0,31,0.00,SCT,SCT,0.00,WeatherDisplay:10.34,2013-06-06 21:03:00,
2013-06-06 15:08:00,78.8,45.6,30.00,NW,309,2.0,3.0,31,0.00,BKN,BKN,0.00,WeatherDisplay:10.34,2013-06-06 21:08:00,
2013-06-06 15:13:00,78.4,46.1,30.00,WNW,290,8.0,10.0,32,0.00,SCT,SCT,0.00,WeatherDisplay:10.34,2013-06-06 21:13:00,
2013-06-06 15:18:00,77.8,44.7,30.00,WNW,301,10.0,12.0,31,0.00,SCT,SCT,0.00,WeatherDisplay:10.34,2013-06-06 21:18:00,
2013-06-06 15:23:00,77.8,46.4,30.00,West,261,9.0,10.0,33,0.00,SCT,SCT,0.00,WeatherDisplay:10.34,2013-06-06 21:23:00,
2013-06-06 15:28:00,78.0,46.6,30.00,NW,324,6.0,8.0,33,0.00,SCT,SCT,0.00,WeatherDisplay:10.34,2013-06-06 21:28:00,
2013-06-06 15:33:00,78.2,45.9,30.00,NNW,330,10.0,12.0,32,0.00,SCT,SCT,0.00,WeatherDisplay:10.34,2013-06-06 21:33:00,
2013-06-06 15:38:00,78.2,46.7,30.00,NNW,338,8.0,9.0,33,0.00,FEW,FEW,0.00,WeatherDisplay:10.34,2013-06-06 21:38:00,
2013-06-06 15:43:00,78.6,46.3,29.99,NNW,331,10.0,13.0,32,0.00,SCT,SCT,0.00,WeatherDisplay:10.34,2013-06-06 21:43:00,
2013-06-06 15:48:00,78.3,46.0,29.99,NNW,335,10.0,12.0,32,0.00,SCT,SCT,0.00,WeatherDisplay:10.34,2013-06-06 21:48:00,
2013-06-06 15:53:00,78.1,45.8,29.99,NNW,332,10.0,12.0,32,0.00,SCT,SCT,0.00,WeatherDisplay:10.34,2013-06-06 21:53:00,
2013-06-06 15:58:00,78.0,44.9,29.99,WNW,296,4.0,5.0,31,0.00,FEW,FEW,0.00,WeatherDisplay:10.34,2013-06-06 21:58:00,
2013-06-06 16:03:00,78.4,47.7,29.99,NNW,343,10.0,13.0,34,0.00,FEW,FEW,0.00,WeatherDisplay:10.34,2013-06-06 22:03:00,
2013-06-06 16:08:00,78.7,44.7,29.99,NNW,333,3.0,7.0,30,0.00,FEW,FEW,0.00,WeatherDisplay:10.34,2013-06-06 22:08:00,
2013-06-06 16:13:00,79.1,44.1,29.99,NNW,332,1.0,1.0,29,0.00,CLR,CLR,0.00,WeatherDisplay:10.34,2013-06-06 22:13:00,
2013-06-06 16:18:00,79.1,45.0,29.99,North,350,3.0,5.0,30,0.00,FEW,FEW,0.00,WeatherDisplay:10.34,2013-06-06 22:18:00,
2013-06-06 16:23:00,79.1,46.7,29.99,NNW,330,8.0,12.0,32,0.00,SCT,SCT,0.00,WeatherDisplay:10.34,2013-06-06 22:23:00,
2013-06-06 16:28:00,78.9,45.7,29.99,WNW,297,11.0,13.0,31,0.00,SCT,SCT,0.00,WeatherDisplay:10.34,2013-06-06 22:28:00,
2013-06-06 16:33:00,78.5,47.0,29.99,NW,321,3.0,7.0,33,0.00,SCT,SCT,0.00,WeatherDisplay:10.34,2013-06-06 22:33:00,
2013-06-06 16:38:00,78.5,46.2,29.99,NNW,348,4.0,5.0,32,0.00,SCT,SCT,0.00,WeatherDisplay:10.34,2013-06-06 22:38:00,
2013-06-06 16:43:00,78.5,46.2,29.99,NW,309,7.0,9.0,32,0.00,SCT,SCT,0.00,WeatherDisplay:10.34,2013-06-06 22:43:00,
2013-06-06 16:48:00,78.0,45.7,29.99,North,355,9.0,12.0,32,0.00,SCT,SCT,0.00,WeatherDisplay:10.34,2013-06-06 22:48:00,
2013-06-06 16:53:00,77.9,45.7,29.99,NW,317,6.0,10.0,32,0.00,BKN,BKN,0.00,WeatherDisplay:10.34,2013-06-06 22:53:00,
2013-06-06 16:58:00,77.7,47.1,29.99,WNW,299,4.0,4.0,34,0.00,BKN,BKN,0.00,WeatherDisplay:10.34,2013-06-06 22:58:00,
2013-06-06 17:03:00,77.5,46.1,29.99,NNW,338,4.0,8.0,33,0.00,BKN,BKN,0.00,WeatherDisplay:10.34,2013-06-06 23:03:00,
2013-06-06 17:08:00,77.4,45.2,29.99,WNW,297,2.0,3.0,32,0.00,BKN,BKN,0.00,WeatherDisplay:10.34,2013-06-06 23:08:00,
2013-06-06 17:13:00,77.3,46.7,29.99,NNW,330,2.0,7.0,34,0.00,BKN,BKN,0.00,WeatherDisplay:10.34,2013-06-06 23:13:00,
2013-06-06 17:18:00,77.1,45.8,29.99,West,272,5.0,8.0,33,0.00,BKN,BKN,0.00,WeatherDisplay:10.34,2013-06-06 23:18:00,
2013-06-06 17:23:00,76.9,46.4,29.99,WNW,294,3.0,3.0,34,0.00,BKN,BKN,0.00,WeatherDisplay:10.34,2013-06-06 23:23:00,
2013-06-06 17:28:00,76.7,46.2,29.99,WNW,288,4.0,4.0,34,0.00,BKN,BKN,0.00,WeatherDisplay:10.34,2013-06-06 23:28:00,
2013-06-06 17:33:00,76.4,46.7,29.99,NNW,329,3.0,5.0,35,0.00,BKN,BKN,0.00,WeatherDisplay:10.34,2013-06-06 23:33:00,
2013-06-06 17:38:00,76.3,45.1,29.99,NW,313,5.0,5.0,33,0.00,SCT,SCT,0.00,WeatherDisplay:10.34,2013-06-06 23:38:00,
2013-06-06 17:43:00,76.3,45.9,29.99,WNW,302,7.0,9.0,34,0.00,SCT,SCT,0.00,WeatherDisplay:10.34,2013-06-06 23:43:00,
2013-06-06 17:48:00,76.1,45.7,29.99,NNW,335,4.0,4.0,34,0.00,SCT,SCT,0.00,WeatherDisplay:10.34,2013-06-06 23:48:00,
2013-06-06 17:53:00,76.1,45.7,29.99,NNW,348,7.0,8.0,34,0.00,BKN,BKN,0.00,WeatherDisplay:10.34,2013-06-06 23:53:00,
2013-06-06 17:58:00,76.0,45.6,29.99,WNW,289,3.0,3.0,34,0.00,BKN,BKN,0.00,WeatherDisplay:10.34,2013-06-06 23:58:00,
2013-06-06 18:03:00,76.0,46.4,29.99,WNW,300,2.0,5.0,35,0.00,BKN,BKN,0.00,WeatherDisplay:10.34,2013-06-07 00:03:00,
2013-06-06 18:08:00,75.8,44.6,29.99,West,281,3.0,3.0,33,0.00,OVC,OVC,0.00,WeatherDisplay:10.34,2013-06-07 00:08:00,
2013-06-06 18:13:00,75.7,45.3,29.99,West,271,3.0,3.0,34,0.00,OVC,OVC,0.00,WeatherDisplay:10.34,2013-06-07 00:13:00,
2013-06-06 18:18:00,75.6,46.0,29.99,NW,304,5.0,5.0,35,0.00,OVC,OVC,0.00,WeatherDisplay:10.34,2013-06-07 00:18:00,
2013-06-06 18:23:00,75.5,45.9,29.97,NW,304,1.0,2.0,35,0.00,OVC,OVC,0.00,WeatherDisplay:10.34,2013-06-07 00:23:00,
2013-06-06 18:28:00,75.2,47.1,29.97,NNW,334,5.0,5.0,37,0.00,OVC,OVC,0.00,WeatherDisplay:10.34,2013-06-07 00:28:00,
2013-06-06 18:33:00,75.0,45.5,29.97,WNW,298,2.0,3.0,35,0.00,BKN,BKN,0.00,WeatherDisplay:10.34,2013-06-07 00:33:00,
2013-06-06 18:38:00,74.9,46.9,29.97,NNW,346,1.0,5.0,37,0.00,BKN,BKN,0.00,WeatherDisplay:10.34,2013-06-07 00:38:00,
2013-06-06 18:43:00,74.7,46.0,29.98,NNW,341,3.0,3.0,36,0.00,BKN,BKN,0.00,WeatherDisplay:10.34,2013-06-07 00:43:00,
2013-06-06 18:48:00,74.6,45.1,29.98,NW,311,1.0,2.0,35,0.00,BKN,BKN,0.00,WeatherDisplay:10.34,2013-06-07 00:48:00,
2013-06-06 18:53:00,74.6,45.9,29.97,WNW,290,4.0,4.0,36,0.00,BKN,BKN,0.00,WeatherDisplay:10.34,2013-06-07 00:53:00,
2013-06-06 18:58:00,74.6,45.9,29.97,NW,319,3.0,3.0,36,0.00,OVC,OVC,0.00,WeatherDisplay:10.34,2013-06-07 00:58:00,
2013-06-06 19:03:00,74.5,45.8,29.97,WNW,293,3.0,5.0,36,0.00,OVC,OVC,0.00,WeatherDisplay:10.34,2013-06-07 01:03:00,
2013-06-06 19:08:00,74.4,45.7,29.97,WNW,288,1.0,1.0,36,0.00,OVC,OVC,0.00,WeatherDisplay:10.34,2013-06-07 01:08:00,
2013-06-06 19:13:00,74.3,44.9,29.97,WNW,302,1.0,2.0,35,0.00,OVC,OVC,0.00,WeatherDisplay:10.34,2013-06-07 01:13:00,
2013-06-06 19:18:00,74.2,44.8,29.97,WNW,302,2.0,2.0,35,0.00,OVC,OVC,0.00,WeatherDisplay:10.34,2013-06-07 01:18:00,
2013-06-06 19:23:00,74.2,44.8,29.97,WNW,302,0.0,0.0,35,0.00,OVC,OVC,0.00,WeatherDisplay:10.34,2013-06-07 01:23:00,
2013-06-06 19:28:00,74.1,45.4,29.97,WNW,302,2.0,2.0,36,0.00,OVC,OVC,0.00,WeatherDisplay:10.34,2013-06-07 01:28:00,
2013-06-06 19:33:00,74.0,45.3,29.97,West,281,2.0,2.0,36,0.00,OVC,OVC,0.00,WeatherDisplay:10.34,2013-06-07 01:33:00,
2013-06-06 19:38:00,73.8,44.4,29.97,WSW,253,2.0,2.0,35,0.00,OVC,OVC,0.00,WeatherDisplay:10.34,2013-06-07 01:38:00,
2013-06-06 19:43:00,73.7,45.1,29.98,WSW,253,1.0,1.0,36,0.00,OVC,OVC,0.00,WeatherDisplay:10.34,2013-06-07 01:43:00,
2013-06-06 19:48:00,73.5,46.3,29.98,WSW,252,1.0,1.0,38,0.00,OVC,OVC,0.00,WeatherDisplay:10.34,2013-06-07 01:48:00,
2013-06-06 19:53:00,73.4,46.2,29.98,WSW,253,3.0,3.0,38,0.00,OVC,OVC,0.00,WeatherDisplay:10.34,2013-06-07 01:53:00,
2013-06-06 19:58:00,73.1,46.0,29.98,SW,232,3.0,3.0,38,0.00,OVC,OVC,0.00,WeatherDisplay:10.34,2013-06-07 01:58:00,
2013-06-06 20:03:00,72.9,46.5,29.98,SW,232,0.0,1.0,39,0.00,OVC,OVC,0.00,WeatherDisplay:10.34,2013-06-07 02:03:00,
2013-06-06 20:08:00,72.8,45.7,29.98,SW,232,0.0,0.0,38,0.00,OVC,OVC,0.00,WeatherDisplay:10.34,2013-06-07 02:08:00,
2013-06-06 20:13:00,72.5,47.5,29.98,SW,232,0.0,1.0,41,0.00,OVC,OVC,0.00,WeatherDisplay:10.34,2013-06-07 02:13:00,
2013-06-06 20:18:00,72.0,47.0,29.98,ESE,107,4.0,5.0,41,0.00,OVC,OVC,0.00,WeatherDisplay:10.34,2013-06-07 02:18:00,
2013-06-06 20:23:00,71.2,48.8,29.98,SSE,168,8.0,8.0,45,0.00,OVC,OVC,0.00,WeatherDisplay:10.34,2013-06-07 02:23:00,
2013-06-06 20:28:00,69.8,48.7,29.98,SSE,149,5.0,5.0,47,0.00,OVC,OVC,0.00,WeatherDisplay:10.34,2013-06-07 02:28:00,
2013-06-06 20:34:00,69.0,47.9,29.99,SE,146,5.0,5.0,47,0.00,OVC,OVC,0.00,WeatherDisplay:10.34,2013-06-07 02:34:00,
2013-06-06 20:39:00,68.8,47.7,29.99,SSE,148,4.0,5.0,47,0.00,OVC,OVC,0.00,WeatherDisplay:10.34,2013-06-07 02:39:00,
2013-06-06 20:44:00,68.6,47.6,29.99,SSE,148,2.0,2.0,47,0.00,OVC,OVC,0.00,WeatherDisplay:10.34,2013-06-07 02:44:00,
2013-06-06 20:49:00,68.6,48.1,29.99,SSE,148,0.0,0.0,48,0.00,OVC,OVC,0.00,WeatherDisplay:10.34,2013-06-07 02:49:00,
2013-06-06 20:54:00,68.6,48.1,29.99,SSE,148,2.0,2.0,48,0.00,OVC,OVC,0.00,WeatherDisplay:10.34,2013-06-07 02:54:00,
2013-06-06 20:59:00,68.4,46.8,29.99,SE,131,2.0,2.0,46,0.00,OVC,OVC,0.00,WeatherDisplay:10.34,2013-06-07 02:59:00,
2013-06-06 21:04:00,68.4,46.8,29.99,SE,131,2.0,2.0,46,0.00,CLR,CLR,0.00,WeatherDisplay:10.34,2013-06-07 03:04:00,
2013-06-06 21:09:00,68.3,47.3,29.99,SE,130,3.0,3.0,47,0.00,CLR,CLR,0.00,WeatherDisplay:10.34,2013-06-07 03:09:00,
2013-06-06 21:14:00,68.0,47.0,30.00,SE,130,3.0,3.0,47,0.00,CLR,CLR,0.00,WeatherDisplay:10.34,2013-06-07 03:14:00,
2013-06-06 21:19:00,67.9,46.9,30.00,SE,129,3.0,3.0,47,0.00,CLR,CLR,0.00,WeatherDisplay:10.34,2013-06-07 03:19:00,
2013-06-06 21:24:00,67.8,47.4,30.00,SE,129,1.0,1.0,48,0.00,CLR,CLR,0.00,WeatherDisplay:10.34,2013-06-07 03:24:00,
2013-06-06 21:29:00,67.3,46.9,30.00,SE,129,2.0,2.0,48,0.00,CLR,CLR,0.00,WeatherDisplay:10.34,2013-06-07 03:29:00,
2013-06-06 21:34:00,66.7,47.5,30.00,SSE,157,5.0,5.0,50,0.00,CLR,CLR,0.00,WeatherDisplay:10.34,2013-06-07 03:34:00,
2013-06-06 21:39:00,65.5,47.9,30.00,SE,144,7.0,8.0,53,0.00,CLR,CLR,0.00,WeatherDisplay:10.34,2013-06-07 03:39:00,
2013-06-06 21:44:00,64.6,46.1,30.00,SE,140,6.0,6.0,51,0.00,CLR,CLR,0.00,WeatherDisplay:10.34,2013-06-07 03:44:00,
2013-06-06 21:49:00,64.5,47.5,30.00,SSE,150,6.0,6.0,54,0.00,CLR,CLR,0.00,WeatherDisplay:10.34,2013-06-07 03:49:00,
2013-06-06 21:54:00,64.3,47.3,30.00,SSE,163,6.0,6.0,54,0.00,CLR,CLR,0.00,WeatherDisplay:10.34,2013-06-07 03:54:00,
2013-06-06 21:59:00,64.0,47.0,30.00,SSE,154,8.0,8.0,54,0.00,CLR,CLR,0.00,WeatherDisplay:10.34,2013-06-07 03:59:00,
2013-06-06 22:01:00,63.9,46.9,30.00,SSE,153,7.0,7.0,54,0.00,CLR,CLR,0.00,WeatherDisplay:10.34,2013-06-07 04:01:00,
2013-06-06 22:02:00,64.0,47.0,30.00,SSE,148,7.0,7.0,54,0.00,CLR,CLR,0.00,WeatherDisplay:10.34,2013-06-07 04:02:00,
2013-06-06 22:03:00,64.0,47.0,30.00,SE,140,8.0,8.0,54,0.00,CLR,CLR,0.00,WeatherDisplay:10.34,2013-06-07 04:03:00,
2013-06-06 22:04:00,63.9,46.9,30.00,SE,140,7.0,7.0,54,0.00,CLR,CLR,0.00,WeatherDisplay:10.34,2013-06-07 04:04:00,
2013-06-06 22:09:00,63.5,47.5,30.00,SSE,154,5.0,5.0,56,0.00,CLR,CLR,0.00,WeatherDisplay:10.34,2013-06-07 04:09:00,
2013-06-06 22:14:00,63.2,46.8,30.00,SSE,153,3.0,3.0,55,0.00,CLR,CLR,0.00,WeatherDisplay:10.34,2013-06-07 04:14:00,
2013-06-06 22:19:00,63.0,46.6,30.00,SSE,147,1.0,1.0,55,0.00,CLR,CLR,0.00,WeatherDisplay:10.34,2013-06-07 04:19:00,
2013-06-06 22:24:00,63.0,46.6,30.00,SSE,147,0.0,0.0,55,0.00,CLR,CLR,0.00,WeatherDisplay:10.34,2013-06-07 04:24:00,
2013-06-06 22:29:00,63.0,47.1,30.00,SE,146,0.0,0.0,56,0.00,CLR,CLR,0.00,WeatherDisplay:10.34,2013-06-07 04:29:00,
2013-06-06 22:34:00,62.9,47.0,30.00,SSE,147,3.0,3.0,56,0.00,CLR,CLR,0.00,WeatherDisplay:10.34,2013-06-07 04:34:00,
2013-06-06 22:39:00,62.9,47.0,30.00,South,169,3.0,3.0,56,0.00,CLR,CLR,0.00,WeatherDisplay:10.34,2013-06-07 04:39:00,
2013-06-06 22:44:00,62.8,46.9,30.01,South,170,4.0,4.0,56,0.00,CLR,CLR,0.00,WeatherDisplay:10.34,2013-06-07 04:44:00,
2013-06-06 22:49:00,62.7,46.8,30.01,WSW,238,8.0,8.0,56,0.00,CLR,CLR,0.00,WeatherDisplay:10.34,2013-06-07 04:49:00,
2013-06-06 22:54:00,62.4,47.0,30.01,SW,227,8.0,8.0,57,0.00,CLR,CLR,0.00,WeatherDisplay:10.34,2013-06-07 04:54:00,
2013-06-06 22:59:00,62.1,46.7,30.01,SW,236,5.0,7.0,57,0.00,CLR,CLR,0.00,WeatherDisplay:10.34,2013-06-07 04:59:00,
2013-06-06 23:04:00,61.8,47.3,30.01,SW,232,6.0,7.0,59,0.00,CLR,CLR,0.00,WeatherDisplay:10.34,2013-06-07 05:04:00,
2013-06-06 23:09:00,61.4,46.9,30.01,SW,233,4.0,5.0,59,0.00,CLR,CLR,0.00,WeatherDisplay:10.34,2013-06-07 05:09:00,
2013-06-06 23:14:00,61.2,46.8,30.01,SW,225,0.0,0.0,59,0.00,CLR,CLR,0.00,WeatherDisplay:10.34,2013-06-07 05:14:00,
2013-06-06 23:19:00,60.9,46.5,30.01,SW,225,3.0,3.0,59,0.00,CLR,CLR,0.00,WeatherDisplay:10.34,2013-06-07 05:19:00,
2013-06-06 23:24:00,60.5,46.5,30.00,SW,225,0.0,0.0,60,0.00,CLR,CLR,0.00,WeatherDisplay:10.34,2013-06-07 05:24:00,
2013-06-06 23:29:00,60.2,46.3,30.00,SW,225,0.0,1.0,60,0.00,CLR,CLR,0.00,WeatherDisplay:10.34,2013-06-07 05:29:00,
2013-06-06 23:34:00,59.6,46.6,30.00,SSW,213,3.0,3.0,62,0.00,CLR,CLR,0.00,WeatherDisplay:10.34,2013-06-07 05:34:00,
2013-06-06 23:39:00,59.0,46.0,30.00,SE,140,4.0,5.0,62,0.00,CLR,CLR,0.00,WeatherDisplay:10.34,2013-06-07 05:39:00,
2013-06-06 23:44:00,58.4,45.8,30.00,SE,141,2.0,2.0,63,0.00,CLR,CLR,0.00,WeatherDisplay:10.34,2013-06-07 05:44:00,
2013-06-06 23:49:00,58.2,46.1,30.00,SE,142,3.0,3.0,64,0.00,CLR,CLR,0.00,WeatherDisplay:10.34,2013-06-07 05:49:00,
2013-06-06 23:54:00,58.1,46.0,30.00,SSW,206,6.0,7.0,64,0.00,CLR,CLR,0.00,WeatherDisplay:10.34,2013-06-07 05:54:00,
2013-06-06 23:59:00,58.0,45.9,29.99,SSW,196,4.0,5.0,64,0.00,CLR,CLR,0.00,WeatherDisplay:10.34,2013-06-07 05:59:00,